Location: Unspecified
(0.0000°N, 0.0000°E)
Time: 23:47:57
(UTC+02:00)

DELTA 2 R/B (1) - Visible Passes

Search period start: 28 July 2015 00:00
Search period end: 07 August 2015 00:00
Orbit: 792 x 802 km, 39.6° (Epoch: 28 July)

Date Brightness Start Highest point End Pass type
(mag) Time Alt. Az. Time Alt. Az. Time Alt. Az.
28 Jul 5.9 05:32:30 15° SE 05:32:30 15° SE 05:34:38 10° ESE visible
28 Jul 3.6 07:13:19 15° SW 07:17:56 80° NW 07:23:31 10° NE visible
29 Jul 3.5 06:44:39 34° SW 06:47:12 89° WNW 06:52:48 10° NE visible
30 Jul 3.4 06:15:58 72° SSW 06:16:29 81° SE 06:22:04 10° NE visible
31 Jul 4.4 05:47:15 48° ENE 05:47:15 48° ENE 05:51:19 10° NE visible
31 Jul 5.4 07:28:39 10° W 07:32:16 17° NW 07:35:40 10° N visible
01 Aug 5.7 05:18:31 23° ENE 05:18:31 23° ENE 05:20:33 10° ENE visible
01 Aug 5.2 06:59:18 16° WNW 07:01:30 19° NW 07:05:17 10° N visible
02 Aug 6.6 04:49:42 10° ENE 04:49:42 10° ENE 04:49:45 10° ENE visible
02 Aug 5.0 06:30:30 21° NW 06:30:44 21° NW 06:34:51 10° N visible
03 Aug 5.3 06:01:39 21° NNW 06:01:39 21° NNW 06:04:22 10° NNE visible
04 Aug 5.9 05:32:45 15° N 05:32:45 15° N 05:33:51 10° NNE visible
